Regional Weather Roundup
Issued by NWS

Home | Current Version | Previous Version | Graphics & Text | Print | Product List | Glossary On
Versions: 1 2 3 4 5 6 7 8 9 10 11 12 13 14 15 16 17 18 19 20 21 22 23 24 25 26 27 28 29 30 31 32 33 34 35 36 37 38 39 40 41 42 43 44 45 46 47 48 49 50
000
ASUS43 KIND 261759
RWRIN

WEATHER ROUNDUP FOR INDIANA
NATIONAL WEATHER SERVICE INDIANAPOLIS IN
200 PM EDT TUE JUL 26 2016

NOTE: "FAIR" INDICATES FEW OR NO CLOUDS BELOW 12,000 FEET WITH NO
SIGNIFICANT WEATHER AND/OR OBSTRUCTIONS TO VISIBILITY.

* - STATION DOES NOT REPORT WEATHER SUCH AS PRECIPITATION OR FOG.

+ - STATION NOT QUALITY CONTROLLED BY THE NATIONAL WEATHER SERVICE.
    USE DATA WITH CAUTION...ESPECIALLY DEWPOINT AND RELATIVE
    HUMIDITY OBSERVATIONS.

INZ001>003-010>013-019-020-261900-
NORTHWEST INDIANA

CITY           SKY/WX    TMP DP  RH WIND       PRES   REMARKS
GARY /AIRPORT/ MOSUNNY   84  70  61 VRB5      30.07S
KNOX *+        PTSUNNY   81  52  36 CALM      30.06S
MONTICELLO +   MOSUNNY   81  63  53 E5        30.06S
6HR MIN TEMP:  68; 6HR MAX TEMP:  82;


$$

LMZ046-743>745-261900-
SOUTHERN LAKE MICHIGAN

STATION/POSITION TIME  TEMP    WIND        PRES    WAVE
                       AIR SEA DIR/SP/G            HT
                 (UTC) (F)     (DEG/KT/KT) (MB)    (FT)
BURNS HARBOR     1740   77      30/  6/  7 1018.3F
MICHIGAN CITY    1700   76     360/  9/  9   N/A
5NW MICH CITY    1700   76 76   20/  6/  8   N/A     0

$$

INZ004-005-014>016-021>024-261900-
NORTH CENTRAL INDIANA

CITY           SKY/WX    TMP DP  RH WIND       PRES   REMARKS
ELKHART        PTSUNNY   81  66  61 N3        30.07F
GOSHEN         SUNNY     83  59  44 CALM      30.06F
6HR MIN TEMP:  68; 6HR MAX TEMP:  85;

SOUTH BEND     MOSUNNY   83  63  50 N6        30.06F
6HR MIN TEMP:  69; 6HR MAX TEMP:  85;


$$

INZ006>009-017-018-025>027-261900-
NORTHEAST INDIANA

CITY           SKY/WX    TMP DP  RH WIND       PRES   REMARKS
ANGOLA *+        N/A     82  79  89 VRB5      30.07F
FORT WAYNE     PTSUNNY   87  59  38 SE6       30.06F
6HR MIN TEMP:  68; 6HR MAX TEMP:  87;


$$

INZ028-029-035-036-043>045-051>053-261900-
WEST CENTRAL INDIANA

CITY           SKY/WX    TMP DP  RH WIND       PRES   REMARKS
CRAWFORDSVL +  PTSUNNY   76  66  71 S3        30.07S
6HR MIN TEMP:  69; 6HR MAX TEMP:  76; 6HR PCP:  0.04;

LAFAYETTE      CLOUDY    80  68  66 E7        30.05F
6HR MIN TEMP:  71; 6HR MAX TEMP:  80;

TERRE HAUTE    CLOUDY    75  69  81 E5        30.05F
6HR MIN TEMP:  69; 6HR MAX TEMP:  78; 6HR PCP:  0.62;


$$

INZ030>032-037>040-046>048-054>057-064-065-261900-
CENTRAL INDIANA

CITY           SKY/WX    TMP DP  RH WIND       PRES   REMARKS
ANDERSON       LGT RAIN  77  66  69 CALM      30.07
COLUMBUS       PTSUNNY   73  73 100 NE6       30.04F
INDIANAPOLIS   NOT AVBL
-EAGLE CREEK   LGT RAIN  75  70  84 CALM      30.06R
6HR MIN TEMP:  74; 6HR MAX TEMP:  79; 6HR PCP:  0.09;

KOKOMO *+      CLOUDY    81  64  57 SE6       30.06S
6HR MIN TEMP:  70; 6HR MAX TEMP:  81;

SHELBYVILLE    CLOUDY    76  71  85 NE3       30.05S
6HR MIN TEMP:  74; 6HR MAX TEMP:  80; 6HR PCP:  0.20;


$$

INZ033-034-041-042-049-050-058-059-261900-
EAST CENTRAL INDIANA

CITY           SKY/WX    TMP DP  RH WIND       PRES   REMARKS
MUNCIE         CLOUDY    81  67  62 CALM      30.07S
6HR MIN TEMP:  71; 6HR MAX TEMP:  82;


$$

INZ060-061-067>069-081>083-085>088-261900-
SOUTHWEST INDIANA

CITY           SKY/WX    TMP DP  RH WIND       PRES   REMARKS
EVANSVILLE     MOSUNNY   88  75  65 VRB3      30.01F HX  97
6HR MIN TEMP:  75; 6HR MAX TEMP:  88;

HUNTINGBURG *+ PTSUNNY   86  75  70 N3        30.02S HX  95
6HR MIN TEMP:  73; 6HR MAX TEMP:  88; 6HR PCP:  0.01;


$$

INZ062-063-066-070>080-084-089>092-261900-
SOUTH CENTRAL AND SOUTHEAST INDIANA

CITY           SKY/WX    TMP DP  RH WIND       PRES   REMARKS
BLOOMINGTON    CLOUDY    79  71  76 E6        30.04F
6HR MIN TEMP:  69; 6HR MAX TEMP:  80; 6HR PCP:  0.20;

MADISON *+     PTSUNNY   81  72  74 CALM      30.06S

$$





USA.gov is the U.S. government's official web portal to all federal, state and local government web resources and services.